National Oceanic Atmosphere Administration National Weather Service Headquarters National Weather Service Headquarters
NOAA logo WFO Anchorage Scalable transition graphic NWS logo
Transition from title bar to navgation bar   Aviation Weather 19 AKDT 
blankspace Home   |   Mobile   |   Social Media   |   Mesonet   |   Surface Map   |   Radar   |   Submit Storm Reports   |   News =03 GMT 

LocalForecast by City, St or Zip Code

spacer

Forecasts/Products
  Public
  Forecast Discussion
    - With Glossary
  Aviation
  Marine
  Hydrology(RFC)
  Rivers & Lakes AHPS
  Ice Desk
  TV Weather
  Fire Weather
  Avalanche
  Travel 511
  Graphical
  xml logo RSS Feeds
  Marine FTPMail

spacer

Data
  Mesonet
  Model Graphics
  Local Model
  Observations
  Marine Obs
  Satellite/Radar
  Vent Factor
  Soaring Index
  Weather Links

spacer

Climate
  PAFC Climate
  Interactive Climate
  PAFC Records
  Local
  National
  More

spacer

Outreach
  About Us
  Community Outreach
  Kids' Page
  Tour/Speaker Request
  Weather Classroom
  Social Media

spacer

Reports
  COOP Observers
  Local Storm Reports
  Spotter Page
  Submit a Storm Report

spacer

Miscellaneous
  Archived Alaska Weather Stories
  Student Career Opportunities
  Research Papers

spacer

Print Friendly/
Low Bandwidth

  Public Forecasts
  Marine Forecasts

spacer

Contact Us
  mailto pafcweb

spacer

Facebook Follow the National Weather Service in Alaska on Twitter
USA.gov is the U.S. government's official web portal to all federal, state and local government web resources and services.


** Important notice for upcoming changes to NWS Anchorage web site ** Read more...
 ICAO ID:   AAWU Graphics

Internet access to TAFs and METAR observations is for planning purposes only. We can not guarantee the timeliness of internet products. Before flying please get a formal pilot briefing (1-800-992-7433) and ALWAYS file a Flight Plan!Pilot briefings are provided to licensed aircraft pilots, ONLY! Others may not use the above number to obtain weather information.

Check out the Key to TAFs and METARs for help with decoding the information.

A 12 hour summary of TAFs can be found here.

PAFA TAF
PAFA 282348Z 2900/3006 09008KT P6SM VCSH FEW060 BKN200
     FM291000 00000KT P6SM VCFG SCT060
     FM291800 VRB04KT P6SM VCSH BKN050=


METAR PAFA 290253Z 09004KT 10SM FEW060 SCT110 BKN200 14/M07 A2956 

 RMK AO2 SLP014 PRSNT WX VCSH N AND E VIRGA T01441067 56010=
METAR PAFA 290153Z 05004KT 10SM FEW060 SCT110 BKN200 16/M08 A2956 

 RMK AO2 SLP016 PRSNT WX VCSH N-E VIRGA T01561083=
METAR PAFA 290053Z 05004KT 10SM FEW060 SCT110 BKN200 15/M07 A2957 

 RMK AO2 SLP019 PRSNT WX VCSH N-E-S T01501072=
PAFA 282353Z COR 07007KT 10SM FEW060 SCT110 BKN200 15/M05 A2959

     RMK AO2 SLP024 PRSNT WX VCSH S T01501050 10150 20039

     58014=


National Weather Service
Anchorage Forecast Office
6930 Sand Lake Road
Anchorage, Ak 99502
(907) 266-5105 M-F/7-5pm
About Us
Career Opportunities
Glossary
Disclaimer
Privacy Policy
Credits
Alaska Weather Information Line:
1-800-472-0391